User: anonymous   Login
Location: Caltech
(34.1382°N, 118.1253°W)
Time: 06:46:31
(UTC-08:00)
Language:

NOSS 3-2 (A) - Orbit

View from above orbital plane
View from above orbital plane
View from above satellite
View from above satellite

Ground track
Ground track

The orbit data is extracted from the following two-line orbital elements,

1 28095U 03054A   17345.79311888 0.00000000  00000-0  00000-0 0    04
2 28095  63.4234 218.7511 0320000 357.9460   2.0540 13.41356686    06
Epoch (UTC): 11 December 2017 19:02:05
Eccentricity: 0.0320000
inclination: 63.4234°
perigee height: 865 km
apogee height: 1343 km
right ascension of ascending node: 218.7511°
argument of perigee: 357.9460°
revolutions per day: 13.41356686
mean anomaly at epoch: 2.0540°
orbit number at epoch: 0

The dashed part of the orbit path shows where the satellite is in the earth's shadow,  

DLR